Date String (YYYY-MM-DD hh:mm:ss) UTC,Instrument flags,Ambient pressure (hPa),Sample flow (lpm),Bypass flow (lpm),Sample temperature (°C),Ambient temperature (°C),ASC tube jacket temperature (°C),LED temperature (°C),Box temperature (°C),Sample RH (%),Span deviation,Mass concentration (μg/m³),Mass concentration (μg/m³),Mass concentration (μg/m³)
DateTimeUTC,F1_M11,P_M11,Q1_M11,Q2_M11,T1_M11,T2_M11,T3_M11,T4_M11,T5_M11,U1_M11,ZSPAN_M11,X0_M11,X2_M11,X1_M11
2023-03-12 09:00:00,,0824.0,5.00,0.00,22.5,22.2,00.0,31.1,24.4,10.2,0000.0,0003.77,0001.12,0000.63
2023-03-12 09:01:00,,0824.0,5.00,0.00,22.5,21.9,00.0,31.1,24.3,10.2,0000.0,0004.22,0001.16,0000.64
2023-03-12 09:02:00,,0824.0,5.01,0.00,22.5,21.6,00.0,31.1,24.3,10.3,0000.0,0004.71,0001.15,0000.64
2023-03-12 09:03:00,,0824.0,5.00,0.00,22.5,21.4,00.0,31.1,24.2,10.3,0000.0,0003.75,0001.15,0000.63
2023-03-12 09:04:00,,0824.0,5.01,0.00,22.5,21.3,00.0,31.1,24.2,10.3,0000.0,0003.81,0001.13,0000.63
2023-03-12 09:05:00,,0824.0,5.01,0.00,22.5,21.2,00.0,31.1,24.2,10.3,0000.0,0003.51,0001.11,0000.62
2023-03-12 09:06:00,,0824.0,5.03,0.00,22.5,21.1,00.0,31.1,24.2,10.3,0000.0,0003.68,0001.09,0000.61
2023-03-12 09:07:00,,0824.0,4.98,0.00,22.4,21.0,00.0,31.2,24.2,10.4,0000.0,0003.59,0001.09,0000.60
2023-03-12 09:08:00,,0824.0,4.96,0.00,22.4,20.9,00.0,31.1,24.2,10.4,0000.0,0003.77,0001.13,0000.59
2023-03-12 09:09:00,,0824.0,5.00,0.00,22.4,20.9,00.0,31.1,24.2,10.4,0000.0,0004.75,0001.16,0000.60
2023-03-12 09:10:00,,0824.0,5.01,0.00,22.4,20.8,00.0,31.1,24.1,10.4,0000.0,0005.02,0001.22,0000.62
2023-03-12 09:11:00,,0824.0,5.00,0.00,22.4,20.8,00.0,31.1,24.1,10.4,0000.0,0005.04,0001.22,0000.61
2023-03-12 09:12:00,,0824.0,4.98,0.00,22.4,20.8,00.0,31.1,24.1,10.4,0000.0,0004.79,0001.19,0000.61
2023-03-12 09:13:00,,0824.0,5.00,0.00,22.4,20.8,00.0,31.1,24.1,10.5,0000.0,0004.18,0001.20,0000.61
2023-03-12 09:14:00,,0824.0,5.00,0.00,22.4,20.7,00.0,31.1,24.1,10.5,0000.0,0004.42,0001.22,0000.61
2023-03-12 09:15:00,,0824.0,5.00,0.00,22.3,20.7,00.0,31.1,24.1,10.5,0000.0,0004.74,0001.31,0000.62
2023-03-12 09:16:00,,0824.0,4.96,0.00,22.3,20.7,00.0,31.1,24.1,10.5,0000.0,0004.83,0001.35,0000.63
2023-03-12 09:17:00,,0824.0,5.01,0.00,22.3,20.7,00.0,31.1,24.0,10.5,0000.0,0004.73,0001.37,0000.64
2023-03-12 09:18:00,,0824.0,4.97,0.00,22.3,20.7,00.0,31.1,24.0,10.5,0000.0,0004.75,0001.38,0000.64
2023-03-12 09:19:00,,0823.9,5.01,0.00,22.3,20.7,00.0,31.1,24.0,10.5,0000.0,0004.57,0001.34,0000.65
2023-03-12 09:20:00,,0823.8,5.01,0.00,22.3,20.6,00.0,31.1,24.0,10.6,0000.0,0003.84,0001.35,0000.65
2023-03-12 09:21:00,,0823.8,5.01,0.00,22.3,20.6,00.0,31.1,24.0,10.5,0000.0,0003.54,0001.35,0000.65
2023-03-12 09:22:00,,0823.8,5.01,0.00,22.3,20.9,00.0,31.0,24.1,10.6,0000.0,0003.48,0001.34,0000.66
2023-03-12 09:23:00,,0823.8,4.99,0.00,22.4,21.9,00.0,31.0,24.3,10.6,0000.0,0003.36,0001.33,0000.66
2023-03-12 09:24:00,,0823.8,5.00,0.00,22.5,22.9,00.0,31.1,24.5,10.5,0000.0,0003.36,0001.32,0000.67
2023-03-12 09:25:00,,0823.8,5.02,0.00,22.6,22.9,00.0,31.1,24.6,10.4,0000.0,0003.57,0001.32,0000.68
2023-03-12 09:26:00,,0823.8,4.99,0.00,22.6,22.5,00.0,31.1,24.5,10.4,0000.0,0003.94,0001.30,0000.68
2023-03-12 09:27:00,,0823.7,5.00,0.00,22.6,22.2,00.0,31.2,24.5,10.4,0000.0,0003.78,0001.30,0000.70
2023-03-12 09:28:00,,0823.8,4.99,0.00,22.6,21.9,00.0,31.2,24.4,10.4,0000.0,0003.61,0001.27,0000.70
2023-03-12 09:29:00,,0823.7,5.01,0.00,22.6,21.7,00.0,31.2,24.4,10.4,0000.0,0003.52,0001.24,0000.71
2023-03-12 09:30:00,,0823.7,5.00,0.00,22.6,21.5,00.0,31.2,24.4,10.4,0000.0,0003.52,0001.25,0000.71
2023-03-12 09:31:00,,0823.7,4.98,0.00,22.6,21.4,00.0,31.2,24.3,10.4,0000.0,0003.48,0001.23,0000.71
2023-03-12 09:32:00,,0823.6,5.01,0.00,22.6,21.3,00.0,31.2,24.3,10.4,0000.0,0003.64,0001.24,0000.72
2023-03-12 09:33:00,,0823.7,5.00,0.00,22.6,21.2,00.0,31.2,24.3,10.5,0000.0,0003.83,0001.26,0000.73
2023-03-12 09:34:00,,0823.7,5.00,0.00,22.6,21.1,00.0,31.2,24.3,10.5,0000.0,0003.91,0001.30,0000.74
2023-03-12 09:35:00,,0823.7,5.00,0.00,22.6,21.1,00.0,31.2,24.3,10.5,0000.0,0003.81,0001.30,0000.75
2023-03-12 09:36:00,,0823.7,4.99,0.00,22.5,21.0,00.0,31.3,24.3,10.4,0000.0,0003.61,0001.29,0000.76
2023-03-12 09:37:00,,0823.7,5.01,0.00,22.5,21.0,00.0,31.2,24.3,10.4,0000.0,0002.64,0001.25,0000.75
2023-03-12 09:38:00,,0823.7,5.00,0.00,22.5,21.0,00.0,31.2,24.3,10.5,0000.0,0002.68,0001.29,0000.76
2023-03-12 09:39:00,,0823.7,4.99,0.00,22.5,20.9,00.0,31.2,24.3,10.5,0000.0,0002.73,0001.30,0000.76
2023-03-12 09:40:00,,0823.7,4.99,0.00,22.5,20.9,00.0,31.2,24.2,10.5,0000.0,0002.93,0001.36,0000.76
2023-03-12 09:41:00,,0823.7,5.00,0.00,22.5,20.8,00.0,31.2,24.2,10.4,0000.0,0002.99,0001.36,0000.76
2023-03-12 09:42:00,,0823.6,5.00,0.00,22.5,20.8,00.0,31.2,24.2,10.5,0000.0,0004.50,0001.38,0000.76
2023-03-12 09:43:00,,0823.6,5.01,0.00,22.4,20.8,00.0,31.2,24.2,10.5,0000.0,0004.57,0001.36,0000.76
2023-03-12 09:44:00,,0823.7,5.00,0.00,22.4,20.8,00.0,31.2,24.2,10.6,0000.0,0004.46,0001.34,0000.76
2023-03-12 09:45:00,,0823.6,5.00,0.00,22.4,20.8,00.0,31.2,24.2,10.6,0000.0,0004.60,0001.36,0000.75
2023-03-12 09:46:00,,0823.6,4.99,0.00,22.4,20.7,00.0,31.2,24.1,10.5,0000.0,0004.71,0001.42,0000.75
2023-03-12 09:47:00,,0823.6,4.98,0.00,22.4,20.7,00.0,31.2,24.1,10.6,0000.0,0004.86,0001.48,0000.74
2023-03-12 09:48:00,,0823.5,4.97,0.00,22.4,20.7,00.0,31.2,24.1,10.5,0000.0,0005.73,0001.48,0000.73
2023-03-12 09:49:00,,0823.5,5.00,0.00,22.4,20.7,00.0,31.2,24.1,10.5,0000.0,0006.64,0001.44,0000.72
2023-03-12 09:50:00,,0823.6,5.01,0.00,22.4,20.7,00.0,31.1,24.1,10.6,0000.0,0006.70,0001.45,0000.72
2023-03-12 09:51:00,,0823.6,5.01,0.00,22.3,20.6,00.0,31.1,24.1,10.6,0000.0,0006.78,0001.41,0000.71
2023-03-12 09:52:00,,0823.7,5.01,0.00,22.3,20.6,00.0,31.1,24.1,10.6,0000.0,0007.49,0001.42,0000.71
2023-03-12 09:53:00,,0823.7,5.01,0.00,22.3,21.0,00.0,31.1,24.1,10.6,0000.0,0006.10,0001.39,0000.70
2023-03-12 09:54:00,,0823.7,5.02,0.00,22.4,22.0,00.0,31.1,24.4,10.5,0000.0,0005.83,0001.38,0000.70
2023-03-12 09:55:00,,0823.7,5.01,0.00,22.6,22.9,00.0,31.1,24.6,10.4,0000.0,0005.86,0001.40,0000.70
2023-03-12 09:56:00,,0823.7,4.99,0.00,22.6,22.8,00.0,31.1,24.7,10.4,0000.0,0005.86,0001.38,0000.70
2023-03-12 09:57:00,,0823.7,5.00,0.00,22.7,22.5,00.0,31.2,24.6,10.4,0000.0,0006.12,0001.30,0000.69
2023-03-12 09:58:00,,0823.7,4.99,0.00,22.7,22.1,00.0,31.2,24.5,10.3,0000.0,0006.59,0001.21,0000.70
2023-03-12 09:59:00,,0823.6,5.00,0.00,22.7,21.8,00.0,31.2,24.5,10.3,0000.0,0005.76,0001.19,0000.70
